Date String (YYYY-MM-DD hh:mm:ss) UTC,Instrument flags,Ambient pressure (hPa),Sample flow (lpm),Bypass flow (lpm),Sample temperature (°C),Ambient temperature (°C),ASC tube jacket temperature (°C),LED temperature (°C),Box temperature (°C),Sample RH (%),Span deviation,Mass concentration (μg/m³),Mass concentration (μg/m³),Mass concentration (μg/m³)
DateTimeUTC,F1_M11,P_M11,Q1_M11,Q2_M11,T1_M11,T2_M11,T3_M11,T4_M11,T5_M11,U1_M11,ZSPAN_M11,X2_M11,X0_M11,X1_M11
2022-09-14 16:00:00,,0823.7,5.00,0.00,30.3,27.6,00.0,39.1,32.0,18.9,0002.5,0005.85,0010.91,0005.04
2022-09-14 16:01:00,,0823.7,5.00,0.00,30.3,27.9,00.0,39.1,32.0,18.9,0002.5,0005.87,0011.13,0005.03
2022-09-14 16:02:00,,0823.7,5.00,0.00,30.3,28.2,00.0,39.0,32.0,19.0,0002.3,0005.85,0011.66,0005.02
2022-09-14 16:03:00,,0823.7,5.01,0.00,30.3,28.4,00.0,39.0,32.0,19.2,0002.6,0005.85,0012.25,0005.01
2022-09-14 16:04:00,,0823.8,4.99,0.00,30.3,28.5,00.0,39.0,32.0,19.1,0002.6,0005.88,0011.40,0004.99
2022-09-14 16:05:00,,0823.8,5.00,0.00,30.3,28.7,00.0,39.0,32.0,18.9,0002.1,0005.83,0010.84,0004.96
2022-09-14 16:06:00,,0823.8,4.99,0.00,30.3,28.8,00.0,39.0,32.1,19.2,0001.7,0005.83,0010.89,0004.94
2022-09-14 16:07:00,,0823.8,5.01,0.00,30.3,28.8,00.0,39.0,32.1,19.7,0001.4,0005.84,0011.43,0004.93
2022-09-14 16:08:00,,0823.7,5.00,0.00,30.3,28.9,00.0,39.0,32.1,19.5,0001.3,0005.82,0011.83,0004.91
2022-09-14 16:09:00,,0823.8,5.00,0.00,30.3,29.0,00.0,39.1,32.1,19.4,0001.5,0005.76,0012.22,0004.87
2022-09-14 16:10:00,,0823.8,5.00,0.00,30.4,29.1,00.0,39.1,32.2,19.3,0002.0,0005.75,0012.30,0004.86
2022-09-14 16:11:00,,0823.8,5.00,0.00,30.4,29.1,00.0,39.1,32.2,18.9,0003.0,0005.76,0012.24,0004.86
2022-09-14 16:12:00,,0823.8,5.00,0.00,30.4,29.2,00.0,39.1,32.2,18.7,0003.2,0005.72,0012.01,0004.84
2022-09-14 16:13:00,,0823.8,5.00,0.00,30.4,29.2,00.0,39.1,32.2,18.8,0003.3,0005.69,0011.78,0004.83
2022-09-14 16:14:00,,0823.8,5.00,0.00,30.5,29.3,00.0,39.1,32.3,18.9,0003.1,0005.67,0011.66,0004.82
2022-09-14 16:15:00,,0823.8,4.99,0.00,30.5,29.3,00.0,39.1,32.3,18.8,0000.9,0005.66,0012.10,0004.82
2022-09-14 16:16:00,,0823.8,5.01,0.00,30.5,29.3,00.0,39.2,32.4,19.1,0003.2,0005.67,0012.19,0004.82
2022-09-14 16:17:00,,0823.8,4.99,0.00,30.5,29.4,00.0,39.2,32.4,19.7,0003.4,0005.65,0012.10,0004.82
2022-09-14 16:18:00,,0823.8,4.99,0.00,30.6,29.4,00.0,39.2,32.4,19.4,0003.2,0005.65,0011.67,0004.83
2022-09-14 16:19:00,,0823.8,5.01,0.00,30.6,29.4,00.0,39.2,32.4,19.5,0003.0,0005.67,0011.32,0004.84
2022-09-14 16:20:00,,0823.8,4.99,0.00,30.6,29.3,00.0,39.3,32.5,19.6,0003.3,0005.68,0010.90,0004.86
2022-09-14 16:21:00,,0823.8,5.01,0.00,30.6,27.9,00.0,39.2,32.4,19.7,0003.2,0005.68,0011.52,0004.87
2022-09-14 16:22:00,,0823.9,5.00,0.00,30.6,26.8,00.0,39.2,32.3,19.9,0002.3,0005.67,0012.07,0004.87
2022-09-14 16:23:00,,0823.9,5.00,0.00,30.5,26.9,00.0,39.1,32.2,19.9,0002.1,0005.69,0012.77,0004.89
2022-09-14 16:24:00,,0823.8,5.00,0.00,30.4,27.2,00.0,39.1,32.0,19.9,0002.1,0005.72,0012.81,0004.90
2022-09-14 16:25:00,,0823.8,5.00,0.00,30.3,27.5,00.0,39.1,32.0,20.0,0001.4,0005.76,0013.00,0004.90
2022-09-14 16:26:00,,0823.8,5.00,0.00,30.3,27.9,00.0,39.0,32.0,19.6,0000.9,0005.74,0012.30,0004.91
2022-09-14 16:27:00,,0823.8,5.00,0.00,30.3,28.1,00.0,39.0,32.0,19.8,0000.0,0005.74,0012.30,0004.92
2022-09-14 16:28:00,,0823.8,4.99,0.00,30.3,28.3,00.0,39.0,32.0,20.1,0000.0,0005.75,0012.83,0004.94
2022-09-14 16:29:00,,0823.8,5.01,0.00,30.3,28.5,00.0,39.0,32.0,19.7,0000.0,0005.75,0013.26,0004.95
2022-09-14 16:30:00,,0823.8,4.99,0.00,30.3,28.6,00.0,39.0,32.0,19.7,0000.0,0005.80,0013.95,0004.97
2022-09-14 16:31:00,,0823.8,5.01,0.00,30.3,28.8,00.0,39.0,32.1,19.8,0000.0,0005.80,0014.45,0004.98
2022-09-14 16:32:00,,0823.9,4.99,0.00,30.3,28.9,00.0,39.0,32.1,20.1,0000.0,0005.83,0014.12,0005.00
2022-09-14 16:33:00,,0823.9,5.00,0.00,30.3,29.0,00.0,39.0,32.1,20.0,0000.0,0005.85,0013.75,0005.02
2022-09-14 16:34:00,,0823.9,4.99,0.00,30.3,29.0,00.0,39.0,32.2,19.9,0000.0,0005.91,0014.09,0005.04
2022-09-14 16:35:00,,0823.9,5.01,0.00,30.4,29.1,00.0,39.1,32.2,19.9,0000.0,0005.91,0014.47,0005.06
2022-09-14 16:36:00,,0823.9,5.00,0.00,30.4,29.2,00.0,39.1,32.2,20.2,0000.0,0005.93,0014.01,0005.08
2022-09-14 16:37:00,,0823.9,5.00,0.00,30.4,29.2,00.0,39.1,32.3,20.2,0000.8,0005.96,0013.99,0005.09
2022-09-14 16:38:00,,0824.0,5.00,0.00,30.4,29.3,00.0,39.1,32.3,20.0,0002.6,0005.98,0014.06,0005.12
2022-09-14 16:39:00,,0824.0,4.99,0.00,30.5,29.3,00.0,39.1,32.3,20.1,0002.1,0006.01,0013.82,0005.14
2022-09-14 16:40:00,,0823.9,5.01,0.00,30.5,29.3,00.0,39.2,32.4,20.0,0001.9,0006.03,0013.56,0005.15
2022-09-14 16:41:00,,0824.0,4.99,0.00,30.5,29.4,00.0,39.2,32.4,20.6,0002.2,0005.99,0013.88,0005.15
2022-09-14 16:42:00,,0824.0,5.00,0.00,30.6,29.1,00.0,39.2,32.4,20.8,0001.8,0006.05,0013.99,0005.15
2022-09-14 16:43:00,,0824.0,5.00,0.00,30.6,27.8,00.0,39.2,32.3,20.5,0002.0,0006.08,0013.93,0005.15
2022-09-14 16:44:00,,0823.9,5.00,0.00,30.5,26.8,00.0,39.1,32.2,20.4,0001.5,0006.10,0013.55,0005.14
2022-09-14 16:45:00,,0824.0,5.01,0.00,30.4,26.9,00.0,39.1,32.1,20.2,0001.2,0006.07,0012.75,0005.14
2022-09-14 16:46:00,,0824.0,4.99,0.00,30.3,27.2,00.0,39.0,32.0,20.3,0000.9,0006.05,0012.08,0005.13
2022-09-14 16:47:00,,0823.9,5.01,0.00,30.3,27.5,00.0,39.0,31.9,19.8,0001.1,0006.04,0012.00,0005.13
2022-09-14 16:48:00,,0823.9,5.00,0.00,30.2,27.8,00.0,39.0,31.9,20.0,0001.2,0005.99,0011.79,0005.13
2022-09-14 16:49:00,,0823.9,4.99,0.00,30.2,28.1,00.0,39.0,31.9,19.9,0001.4,0005.96,0011.63,0005.11
2022-09-14 16:50:00,,0823.9,5.01,0.00,30.2,28.3,00.0,39.0,32.0,19.9,0001.7,0005.89,0011.59,0005.08
2022-09-14 16:51:00,,0823.8,4.99,0.00,30.2,28.5,00.0,39.0,32.0,20.1,0001.7,0005.84,0011.57,0005.07
2022-09-14 16:52:00,,0823.8,5.01,0.00,30.2,28.6,00.0,39.0,32.0,20.2,0001.5,0005.85,0011.42,0005.06
2022-09-14 16:53:00,,0823.8,4.99,0.00,30.2,28.8,00.0,39.0,32.0,20.1,0001.9,0005.83,0010.62,0005.07
2022-09-14 16:54:00,,0823.8,4.99,0.00,30.3,28.8,00.0,39.0,32.1,20.5,0002.1,0005.82,0010.49,0005.06
2022-09-14 16:55:00,,0823.8,5.01,0.00,30.3,28.9,00.0,39.0,32.1,20.1,0002.3,0005.80,0010.84,0005.05
2022-09-14 16:56:00,,0823.8,5.00,0.00,30.3,29.0,00.0,39.0,32.1,20.1,0002.7,0005.80,0010.97,0005.04
2022-09-14 16:57:00,,0823.8,4.99,0.00,30.3,29.1,00.0,39.0,32.2,20.4,0001.4,0005.84,0011.26,0005.06
2022-09-14 16:58:00,,0823.7,5.02,0.00,30.4,29.1,00.0,39.0,32.2,20.3,0001.0,0005.89,0011.27,0005.09
2022-09-14 16:59:00,,0823.8,4.99,0.00,30.4,29.2,00.0,39.0,32.2,20.4,0001.0,0005.93,0011.87,0005.10
